Change the Weather History Date:

Thursday, June 20, 2013

  Actual Average Record
Temperature  
Mean Temperature 85 °F -  
Max Temperature 96 °F 88 °F 100 °F (1998)
Min Temperature 75 °F 69 °F 66 °F (2007)
Cooling Degree Days 20    
Growing Degree Days 35 (Base 50)    
Moisture  
Dew Point 68 °F    
Average Humidity 63    
Maximum Humidity 89    
Minimum Humidity 34    
Precipitation  
Precipitation 0.00 in - - ()
Sea Level Pressure  
Sea Level Pressure 30.00 in    
Wind  
Wind Speed 12 mph (South)    
Max Wind Speed 18 mph    
Max Gust Speed 26 mph    
Visibility 10 miles    
Events      
Averages and records for this station are not official NWS values.
T = Trace of Precipitation, MM = Missing Value Source: NWS Daily Summary

Daily Weather History Graph

Daily Weather History Graph

Search for Another Location

Airport or City:

Trip Planner

Search our weather history database for the weather conditions in past years. The results will help you decide how hot, cold, wet, or windy it might be!

Date:

Astronomy

Jun. 20, 2013 Rise Set
Actual Time 6:28 AM CDT 8:36 PM CDT
Civil Twilight 6:00 AM CDT 9:04 PM CDT
Nautical Twilight 5:26 AM CDT 9:37 PM CDT
Astronomical Twilight 4:50 AM CDT 10:14 PM CDT
Moon 5:46 PM CDT (6/20) 3:47 AM CDT (6/20)
Length of Visible Light 15h 03m
Length of Day
14h 08m
Waxing Gibbous, 89% of the Moon is Illuminated
Jun 20
Waxing Gibbous
Jun 23
Full
Jun 29
Last Quarter
Jul 8
New
Jul 15
First Quarter

Hourly Weather History & Observations

Time (CDT) Temp. Heat Index Dew Point Humidity Pressure Visibility Wind Dir Wind Speed Gust Speed Precip Events Conditions
12:15 AM 84.2 °F 88.4 °F 69.8 °F 62% 29.99 in 10.0 mi South 11.5 mph 21.9 mph N/A   Clear
12:35 AM 84.2 °F 88.4 °F 69.8 °F 62% 29.99 in 10.0 mi South 11.5 mph 21.9 mph N/A   Clear
12:55 AM 82.4 °F 86.3 °F 69.8 °F 66% 29.99 in 10.0 mi South 13.8 mph - N/A   Clear
1:15 AM 82.4 °F 84.6 °F 66.2 °F 58% 29.98 in 10.0 mi South 16.1 mph 23.0 mph N/A   Clear
1:35 AM 80.6 °F 83.2 °F 68.0 °F 65% 29.99 in 10.0 mi South 16.1 mph 20.7 mph N/A   Clear
1:55 AM 80.6 °F 83.9 °F 69.8 °F 70% 29.98 in 10.0 mi South 18.4 mph 25.3 mph N/A   Clear
2:15 AM 80.6 °F 83.9 °F 69.8 °F 70% 29.98 in 10.0 mi South 15.0 mph - N/A   Clear
2:35 AM 78.8 °F - 69.8 °F 74% 29.98 in 10.0 mi South 12.7 mph - N/A   Clear
2:55 AM 78.8 °F - 69.8 °F 74% 29.97 in 10.0 mi South 11.5 mph - N/A   Clear
3:15 AM 78.8 °F - 69.8 °F 74% 29.97 in 10.0 mi South 11.5 mph - N/A   Clear
3:35 AM 78.8 °F - 68.0 °F 69% 29.97 in 10.0 mi South 9.2 mph - N/A   Clear
3:55 AM 78.8 °F - 68.0 °F 69% 29.97 in 10.0 mi South 10.4 mph - N/A   Clear
4:15 AM 78.8 °F - 69.8 °F 74% 29.97 in 10.0 mi South 11.5 mph 18.4 mph N/A   Clear
4:35 AM 77.0 °F - 69.8 °F 78% 29.98 in 10.0 mi South 10.4 mph - N/A   Clear
4:55 AM 78.8 °F - 69.8 °F 74% 29.98 in 10.0 mi South 9.2 mph - N/A   Clear
5:15 AM 77.0 °F - 69.8 °F 78% 29.98 in 10.0 mi South 8.1 mph - N/A   Clear
5:35 AM 77.0 °F - 69.8 °F 78% 29.98 in 10.0 mi South 10.4 mph 16.1 mph N/A   Clear
5:55 AM 75.2 °F - 71.6 °F 89% 29.98 in 10.0 mi South 11.5 mph - N/A   Clear
6:15 AM 75.2 °F - 71.6 °F 89% 30.00 in 10.0 mi South 10.4 mph - N/A   Partly Cloudy
6:35 AM 75.2 °F - 71.6 °F 89% 30.00 in 10.0 mi SSW 11.5 mph 17.3 mph N/A   Scattered Clouds
6:49 AM 75.2 °F - 69.8 °F 83% 30.01 in 10.0 mi South 10.4 mph - N/A   Scattered Clouds
7:30 AM 77.0 °F - 69.8 °F 78% 30.03 in 10.0 mi South 16.1 mph - N/A   Mostly Cloudy
7:49 AM 77.0 °F - 69.8 °F 78% 30.04 in 10.0 mi South 13.8 mph 21.9 mph N/A   Overcast
8:47 AM 80.6 °F 84.6 °F 71.6 °F 74% 30.05 in 10.0 mi South 16.1 mph 21.9 mph N/A   Mostly Cloudy
9:48 AM 82.4 °F 86.3 °F 69.8 °F 66% 30.07 in 10.0 mi South 18.4 mph 25.3 mph N/A   Mostly Cloudy
10:48 AM 84.2 °F 88.4 °F 69.8 °F 62% 30.08 in 10.0 mi South 16.1 mph - N/A   Scattered Clouds
11:49 AM 87.8 °F 92.6 °F 69.8 °F 55% 30.07 in 10.0 mi South 15.0 mph 18.4 mph N/A   Scattered Clouds
12:48 PM 91.4 °F 94.0 °F 66.2 °F 43% 30.06 in 10.0 mi South 18.4 mph 26.5 mph N/A   Scattered Clouds
1:48 PM 91.4 °F 94.0 °F 66.2 °F 43% 30.04 in 10.0 mi South 13.8 mph 21.9 mph N/A   Scattered Clouds
2:49 PM 93.2 °F 94.9 °F 64.4 °F 38% 30.02 in 10.0 mi South 12.7 mph 23.0 mph N/A   Scattered Clouds
3:49 PM 93.2 °F 94.9 °F 64.4 °F 38% 30.00 in 10.0 mi South 16.1 mph 19.6 mph N/A   Scattered Clouds
4:45 PM 95.0 °F 96.0 °F 62.6 °F 34% 29.98 in 10.0 mi South 9.2 mph 18.4 mph N/A   Scattered Clouds
5:50 PM 95.0 °F 96.0 °F 62.6 °F 34% 29.96 in 10.0 mi SSE 6.9 mph 19.6 mph N/A   Partly Cloudy
6:49 PM 93.2 °F 94.1 °F 62.6 °F 36% 29.95 in 10.0 mi South 13.8 mph - N/A   Partly Cloudy
7:48 PM 93.2 °F 94.9 °F 64.4 °F 38% 29.95 in 10.0 mi SSE 8.1 mph - N/A   Partly Cloudy
9:50 PM 87.8 °F 88.5 °F 62.6 °F 43% 29.99 in 10.0 mi SSE 10.4 mph 17.3 mph N/A   Clear
10:15 PM 86.0 °F 88.2 °F 66.2 °F 51% 30.01 in 10.0 mi SSE 10.4 mph 16.1 mph N/A   Clear
10:35 PM 84.2 °F 86.6 °F 66.2 °F 55% 30.02 in 10.0 mi SSE 10.4 mph - N/A   Clear
10:55 PM 84.2 °F 87.3 °F 68.0 °F 58% 30.04 in 10.0 mi SSE 11.5 mph 18.4 mph N/A   Clear
11:15 PM 84.2 °F 88.4 °F 69.8 °F 62% 30.06 in 10.0 mi SSE 8.1 mph - N/A   Clear
11:35 PM 82.4 °F 86.3 °F 69.8 °F 66% 30.06 in 10.0 mi South 11.5 mph 19.6 mph N/A   Clear
11:55 PM 82.4 °F 86.3 °F 69.8 °F 66% 30.06 in 10.0 mi SSE 6.9 mph - N/A   Clear